• Processing (Info)

  • MPEC 2013-Q13 : 2013 QR1

    The following Minor Planet Electronic Circular may be linked-to from your own Web pages, but must not otherwise be redistributed electronically.

    A form allowing access to any MPEC is at the bottom of this page.


    Read MPEC 2013-Q12 Read MPEC 2013-Q14


    M.P.E.C. 2013-Q13                                Issued 2013 Aug. 18, 13:12 UT
    
         The Minor Planet Electronic Circulars contain information on unusual
             minor planets and routine data on comets.  They are published
       on behalf of Commission 20 of the International Astronomical Union by the
              Minor Planet Center, Smithsonian Astrophysical Observatory,
                              Cambridge, MA 02138, U.S.A.
    
                 Prepared using the Tamkin Foundation Computer Network
    
                                  MPC@CFA.HARVARD.EDU
                URL http://www.minorplanetcenter.net/    ISSN 1523-6714
    
                                       2013 QR1
    
    Observations:
         K13Q01R* C2013 08 16.51675 22 02 18.793+31 48 38.85         20.0 gLEQ013F51
         K13Q01R  C2013 08 16.52743 22 02 16.382+31 48 30.65         20.1 gLEQ013F51
         K13Q01R  C2013 08 16.53835 22 02 13.936+31 48 22.49         19.2 rLEQ013F51
         K13Q01R KC2013 08 16.93493 22 00 52.81 +31 43 08.3                qEQ013J95
         K13Q01R KC2013 08 16.93916 22 00 51.81 +31 43 05.4          19.0 RqEQ013J95
         K13Q01R SC2013 08 16.94328 22 00 50.84 +31 43 01.5                qEQ013J95
         K13Q01R KC2013 08 17.01290 22 00 33.34 +31 42 11.5          19.5 VtEQ013A44
         K13Q01R KC2013 08 17.01865 22 00 31.93 +31 42 06.6          19.2 VtEQ013A44
         K13Q01R KC2013 08 17.02438 22 00 30.55 +31 42 02.1          19.2 VtEQ013A44
         K13Q01R KC2013 08 17.03155 22 00 28.83 +31 41 56.1          19.2 VtEQ013A44
         K13Q01R KC2013 08 17.30529321 59 25.60 +31 38 23.3          18.5  tEQ013V37
         K13Q01R KC2013 08 17.31134021 59 24.00 +31 38 18.0          19.0  tEQ013V37
         K13Q01R KC2013 08 17.31738421 59 22.39 +31 38 12.4          18.9  tEQ013V37
         K13Q01R KC2013 08 17.87598 21 56 59.35 +31 28 39.9          17.6 RuEQ013B42
         K13Q01R KC2013 08 17.87817 21 56 58.66 +31 28 37.9          17.8 RuEQ013B42
         K13Q01R KC2013 08 17.88036 21 56 58.03 +31 28 36.3          18.1 RuEQ013B42
         K13Q01R KC2013 08 17.88343 21 56 57.13 +31 28 37.3          19.1 RrEQ013585
         K13Q01R KC2013 08 17.88483 21 56 56.71 +31 28 35.7          19.1 RrEQ013585
         K13Q01R KC2013 08 17.88624 21 56 56.29 +31 28 34.2          19.1 RrEQ013585
         K13Q01R KC2013 08 17.88682 21 56 57.32 +31 28 34.0          18.8 RqEQ013C44
         K13Q01R KC2013 08 17.88764 21 56 55.89 +31 28 32.6          19.0 RrEQ013585
         K13Q01R  C2013 08 17.88797 21 56 56.39 +31 28 34.0          18.6 RvEQ013461
         K13Q01R KC2013 08 17.88904 21 56 55.42 +31 28 31.6          18.7 RrEQ013585
         K13Q01R KC2013 08 17.89045 21 56 55.05 +31 28 29.6          18.6 RrEQ013585
         K13Q01R  C2013 08 17.89072 21 56 55.56 +31 28 31.1          18.6 RvEQ013461
         K13Q01R KC2013 08 17.89115 21 56 54.84 +31 28 29.0          18.6 RrEQ013585
         K13Q01R KC2013 08 17.89185 21 56 54.62 +31 28 28.3          18.6 RrEQ013585
         K13Q01R KC2013 08 17.89255 21 56 54.39 +31 28 28.1          18.7 RrEQ013585
         K13Q01R KC2013 08 17.89325 21 56 54.19 +31 28 27.6          18.7 RrEQ013585
         K13Q01R  C2013 08 17.89346 21 56 54.77 +31 28 28.2          18.8 RvEQ013461
         K13Q01R KC2013 08 17.90392 21 56 52.24 +31 28 16.9          19.2 RqEQ013C44
         K13Q01R KC2013 08 17.91003 21 56 50.47 +31 28 11.1          19.0 RqEQ013C44
         K13Q01R KC2013 08 17.95664 21 56 36.91 +31 27 26.1          18.5 RwEQ013B20
         K13Q01R KC2013 08 17.97071 21 56 32.68 +31 27 11.1          18.4 RwEQ013B20
         K13Q01R KC2013 08 17.97218 21 56 31.69 +31 27 07.1          19.0 RqEQ013160
         K13Q01R KC2013 08 17.97329521 56 32.02 +31 27 04.2          18.6 VuEQ013I93
         K13Q01R KC2013 08 17.97410 21 56 31.12 +31 27 05.0          18.9 RqEQ013160
         K13Q01R KC2013 08 17.97735 21 56 30.12 +31 27 01.2          18.7 RqEQ013160
         K13Q01R KC2013 08 17.98105 21 56 29.00 +31 26 56.9          18.8 RqEQ013160
         K13Q01R KC2013 08 17.98281821 56 29.14 +31 26 54.3          18.8 VuEQ013I93
         K13Q01R KC2013 08 17.99755021 56 24.60 +31 26 37.8          18.6 VuEQ013I93
         K13Q01R KC2013 08 18.00316121 56 22.89 +31 26 31.5          19.0 VuEQ013I93
         K13Q01R KC2013 08 18.00631 21 56 21.40 +31 26 26.2                qEQ013204
         K13Q01R KC2013 08 18.01350121 56 19.74 +31 26 19.7          19.1 VuEQ013I93
         K13Q01R KC2013 08 18.01422 21 56 18.97 +31 26 17.1                qEQ013204
         K13Q01R KC2013 08 18.02689 21 56 15.09 +31 26 02.4          19.1 RqEQ013204
         K13Q01R KC2013 08 18.09740021 55 58.74 +31 24 38.0          18.6 VqEQ013H21
         K13Q01R KC2013 08 18.10268421 55 57.12 +31 24 32.3          18.5 VqEQ013H21
         K13Q01R KC2013 08 18.11054621 55 54.73 +31 24 24.2          18.5 VqEQ013H21
         K13Q01R KC2013 08 18.11638821 55 52.90 +31 24 18.0          18.5 VqEQ013H21
         K13Q01R !C2013 08 18.20485 21 55 26.85 +31 22 38.2          18.2 RtEQ013673
         K13Q01R !C2013 08 18.20864 21 55 25.62 +31 22 34.1          17.7 RtEQ013673
    
    Observer details:
    160 Castelmartini.  Observers M. Jaeger, E. Prosperi, S. Prosperi, W. Vollmann.
        Measurer E. Prosperi.  0.35-m f/10 Schmidt-Cassegrain + CCD.
    204 Schiaparelli Observatory.  Observer L. Buzzi.  0.60-m f/4.64 reflector
        + CCD.
    461 University of Szeged, Piszkesteto Stn. (Konkoly).  Observer A. Pal.
        Measurer K. Sarneczky.  0.60-m Schmidt + CCD.
    585 Kiev comet station.  Observer A. Baransky.  0.7-m f/4 reflector + CCD.
    673 Table Mountain Observatory, Wrightwood.  Observer J. Pittichova.
    A44 Altschwendt.  Observer W. Ries.  0.45-m f/4.5 reflector + CCD.
    B20 Observatorio Carmelita, Tiana.  Observer J. M. Aymami.  0.25-m f/4.3
        Schmidt-Cassegrain + CCD.
    B42 Vitebsk.  Observer V. Nevski.  0.3-m f/5.0 reflector + CCD.
    C44 A. Volta Observatory, Lanzo d'Intelvi.  Observer F. Tozzi.  0.40-m f/3.5
        reflector + CCD.
    F51 Pan-STARRS 1, Haleakala.  Observers N. Primak, A. Schultz. T. Goggia,
        M. Willman.  Measurer PS1 Science Consortium.  1.8-m Ritchey-Chretien
        + CCD.
    H21 Astronomical Research Observatory, Westfield.  Observer R. Holmes.
        Measurers T. Vorobjov, L. Buzzi, S. Foglia, T. Linder.  0.61-m f/4.0
        astrograph + CCD.
    I93 St Pardon de Conques.  Observer F. Losse.  0.40-m f/3.7 reflector + CCD.
    J95 Great Shefford.  Observer P. Birtwhistle.  0.40-m f/6.0 Schmidt-Cassegrain
        + CCD.
    V37 McDonald Observatory-LCOGT ELP.  Observer T. Lister.  1.0-m f/8
        Ritchey-Chretien + CCD.
    
    Orbital elements:
    2013 QR1                                            PHA, Earth MOID = 0.0007 AU
    Epoch 2013 Apr. 18.0 TT = JDT 2456400.5                 MPC
    M 296.80864              (2000.0)            P               Q
    n   0.35564031     Peri.  279.18937     +0.18630702     -0.92156371
    a   1.9730075      Node   151.64036     +0.90669399     +0.29479420
    e   0.7402035      Incl.   45.81155     -0.37841209     +0.25261969
    P   2.77           H   21.4           G   0.15           U   6
    Residuals in seconds of arc
    130816 F51  0.1+  0.3+    130817 585  0.1-  0.0     130817 160  0.2+  0.1+
    130816 F51  0.0   0.0     130817 C44  0.1+  0.6-    130817 160  0.0   0.0
    130816 F51  0.1+  0.1+    130817 585  0.1+  0.1-    130817 160  0.1+  0.2-
    130816 J95  0.1-  0.0     130817 461  0.2+  0.4+    130817 I93  0.4+  0.2+
    130816 J95  0.1-  0.1+    130817 585  0.6-  0.3+    130817 I93  0.1-  0.0
    130816 J95  0.0   0.8-    130817 585  0.0   0.2-    130818 I93  0.1-  0.0
    130817 A44  0.2-  0.0     130817 461  0.1-  0.3+    130818 204  0.1-  0.2-
    130817 A44  0.3-  0.1-    130817 585  0.1-  0.0     130818 I93  0.2+  0.1-
    130817 A44  0.1-  0.2+    130817 585  0.3-  0.0     130818 204  0.2-  0.1-
    130817 A44  0.2+  0.2+    130817 585  0.5-  0.6+    130818 204  0.1-  0.0
    130817 V37  0.2-  0.1+    130817 585  0.5-  0.8+    130818 H21  0.0   0.0
    130817 V37  0.1-  0.2+    130817 461  0.2+  0.3+    130818 H21  0.1-  0.2-
    130817 V37  0.1-  0.0     130817 C44  0.4-  0.4-    130818 H21  0.1+  0.1-
    130817 B42  1.5+  0.5-    130817 C44  0.2+  0.1+    130818 H21  0.3-  0.1-
    130817 B42  0.8+  0.2-    130817 B20  0.5-  0.3+    130818 673  0.2-  0.2-
    130817 B42  1.0+  0.5+    130817 B20  0.1+  0.5+    130818 673  0.5-  0.2-
    130817 585  0.1+  0.1+    130817 160  0.0   0.1+
    130817 585  0.0   0.0     130817 I93  0.2+  0.2-
    
    Ephemeris:
    2013 QR1                 a,e,i = 1.97, 0.74, 46                  q = 0.5126
    Date    TT    R. A. (2000) Decl.     Delta      r     Elong.  Phase     V
    2013 07 19    22 19 54.1 +29 47 48   0.7026  1.4840   118.3    37.1    23.0
    ...
    2013 08 03    22 19 52.7 +31 44 37   0.4188  1.3075   126.4    38.6    21.6
    ...
    2013 08 11    22 13 58.9 +32 11 54   0.2708  1.2083   130.9    39.3    20.5
    ...
    2013 08 17    22 00 37.1 +31 42 38   0.1614  1.1317   134.7    39.5    19.3
    2013 08 18    21 56 23.9 +31 26 50   0.1434  1.1188   135.3    39.5    19.0
    2013 08 19    21 51 00.0 +31 04 18   0.1254  1.1058   136.1    39.4    18.7
    ...
    2013 08 25    19 01 08.0 +08 24 34   0.02579 1.0269   128.0    50.8    15.4
    ...
    2013 09 02    11 18 48.5 -35 55 06   0.1321  0.9198    44.7   129.5    22.5
    ...
    2013 09 17    10 49 27.7 -32 26 53   0.4079  0.7204    36.7   123.6    23.9
    
    A. U. Tomatic                (C) Copyright 2013 MPC           M.P.E.C. 2013-Q13
    

    Read MPEC 2013-Q12 Read MPEC 2013-Q14


    MPEC number:

    Enter an MPEC number in one of the following forms:

    • 1997-B01 (the full form)
    • J97B01 (the packed version of the full form)
    • B01 (the abbreviated form)